This demonstration page uses our WeatherBlox Daily Observations layout. Learn more.

Left ArrowRight Arrow

Hourly Observations for January 28, 2016

Temp ( °F °C ) Dew Point ( °F °C ) Humidity (%) Winds ( mph kmh ) Pressure ( in mb ) Visibility ( mi km ) Precip ( " mm )
12:53 am 00:53 Cloudy 39 3.9 33 0.6 79 79 Calm 30.06 1018 10 16 0.00 0.00
1:53 am 01:53 Cloudy 40 4.4 33 0.6 77 77 Calm 30.05 1018 10 16 0.00 0.00
2:33 am 02:33 Cloudy 40 4.4 34 1.1 79 79 Calm 30.06 1018 10 16 0.00 0.00
2:53 am 02:53 Cloudy 40 4.4 34 1.1 79 79 Calm 30.03 1017 10 16 0.00 0.00
3:53 am 03:53 Cloudy 39 3.9 33 0.6 79 79 Calm 30.01 1016 10 16 0.00 0.00
4:08 am 04:08 Cloudy 37 3 34 1 87 87 NW 3 6 30.03 1017 10 16 0.00 0.00
4:43 am 04:43 Cloudy 38 3.3 33 0.6 83 83 NW 5 7 30.03 1017 10 16 0.00 0.00
4:53 am 04:53 Cloudy 38 3.3 33 0.6 83 83 NW 3 6 30.00 1016 10 16 0.00 0.00
5:53 am 05:53 Cloudy 38 3.3 33 0.6 83 83 NW 5 7 30.00 1016 10 16 0.00 0.00
6:41 am 06:41 Cloudy 38 3.3 32 0 79 79 NW 7 11 30.03 1017 10 16 0.00 0.00
6:50 am 06:50 Cloudy 37 3 32 0 81 81 NW 6 9 30.03 1017 10 16 0.00 0.00
6:53 am 06:53 Cloudy 37 2.8 32 0 82 82 NW 6 9 30.01 1016 10 16 0.00 0.00
7:53 am 07:53 Cloudy 37 2.8 32 0 82 82 Calm 30.01 1016 10 16 0.00 0.00
8:41 am 08:41 Partly Cloudy 38 3.3 32 0 79 79 Calm 30.00 1016 10 16 0.00 0.00
8:53 am 08:53 Sunny 38 3.3 32 0 79 79 NNW 3 6 29.99 1016 10 16 0.00 0.00
9:53 am 09:53 Sunny 40 4.4 33 0.6 77 77 Calm 30.01 1016 10 16 0.00 0.00
10:53 am 10:53 Sunny 46 7.8 35 1.7 66 66 NE 3 6 29.99 1016 10 16 0.00 0.00
11:53 am 11:53 Sunny 49 9.4 33 0.6 55 55 VRB 3 6 29.98 1015 10 16 0.00 0.00
12:53 pm 12:53 Sunny 49 9.4 34 1.1 56 56 Calm 29.95 1014 10 16 0.00 0.00
1:53 pm 13:53 Sunny 52 11.1 33 0.6 49 49 N 5 7 29.89 1012 10 16 0.00 0.00
2:53 pm 14:53 Sunny 53 11.7 30 -1.1 41 41 WNW 7 11 29.87 1012 10 16 0.00 0.00
3:53 pm 15:53 Sunny 53 11.7 29 -1.7 40 40 NW 8 13 29.86 1011 10 16 0.00 0.00
4:53 pm 16:53 Sunny 52 11.1 26 -3.3 37 37 WNW 6 9 29.85 1011 10 16 0.00 0.00
5:53 pm 17:53 Sunny 50 10 24 -4.4 36 36 Calm 29.86 1011 10 16 0.00 0.00
6:53 pm 18:53 Clear 46 7.8 28 -2.2 50 50 WSW 3 6 29.87 1011 10 16 0.00 0.00
7:53 pm 19:53 Clear 43 6.1 29 -1.7 58 58 Calm 29.87 1012 10 16 0.00 0.00
8:53 pm 20:53 Clear 44 6.7 28 -2.2 53 53 WSW 5 7 29.88 1012 10 16 0.00 0.00
9:53 pm 21:53 Clear 43 6.1 28 -2.2 56 56 SSW 3 6 29.88 1012 10 16 0.00 0.00
10:53 pm 22:53 Clear 40 4.4 29 -1.7 65 65 SSW 3 6 29.88 1012 10 16 0.00 0.00
11:53 pm 23:53 Clear 38 3.3 29 -1.7 70 70 SW 3 6 29.88 1012 10 16 0.00 0.00

Powered by AerisWeather